Dewpoint
65 64 64 64 63 63 63 63 63 64 64 64 64 63 62 62 63 63 62 62 62 62 61 60 59 58 58 57 57 56 55 54 53 52 51 51 50 49 50 49 49 48
64 64 64 63 63 63 63 63 63 63 63 64 63 62 62 62 62 62 61 61 61 60 60 59 59 57 57 56 55 54 54 53 52 53 50 49 49 49 48 48 48 47
64 64 63 62 62 62 63 63 63 63 63 63 62 62 62 62 61 61 61 60 60 59 59 59 58 57 57 55 55 54 53 52 51 50 50 49 49 48 48 47 46 46
64 64 63 63 63 63 63 63 62 63 62 62 62 62 62 61 61 60 60 60 59 59 59 58 57 57 56 54 54 53 52 51 51 51 50 49 49 48 47 47 47 46
64 63 63 63 63 63 63 63 63 63 62 62 62 61 61 60 60 60 59 59 59 59 58 58 57 57 56 54 53 52 51 49 48 47 47 47 47 47 47 46 45 45
64 64 63 63 63 63 63 62 63 62 62 61 61 61 60 60 60 60 59 59 59 58 58 57 57 56 56 54 52 50 49 49 48 47 47 47 47 48 48 47 46 46
64 63 63 64 63 63 62 62 62 62 61 61 61 60 60 60 60 59 59 58 57 57 57 57 56 55 54 53 51 50 49 49 48 48 47 47 48 46 46 46 46 45
64 63 63 63 63 63 62 62 61 61 61 61 60 59 59 59 59 59 59 58 57 56 56 56 55 54 54 51 50 49 49 49 48 47 46 46 45 44 44 45 45 44
64 63 63 63 63 63 62 62 61 61 61 60 59 59 59 59 59 59 58 57 56 56 56 55 56 54 52 50 49 48 47 47 47 46 46 45 44 44 44 45 45 45
64 64 63 63 63 63 62 61 61 60 60 59 59 59 59 59 58 58 57 55 55 55 55 54 53 54 53 51 48 47 46 46 46 46 46 45 45 44 44 44 44 44
64 64 63 63 63 62 62 61 60 60 60 59 59 59 58 58 58 57 55 54 54 53 53 53 53 52 51 49 47 47 46 46 46 46 45 45 46 46 49 45 46 45
64 64 63 63 62 62 61 60 60 60 60 60 59 58 58 57 57 56 55 53 53 52 52 53 52 49 48 47 46 46 46 46 46 46 45 43 43 43 43 44 44 44
64 64 63 62 62 61 61 60 60 60 60 59 59 58 57 56 56 55 54 53 52 51 51 51 50 48 47 46 46 46 46 46 44 42 41 41 41 42 42 42 43 43
64 63 63 62 62 61 60 60 60 60 60 59 58 57 56 56 55 54 53 51 50 49 49 49 48 46 47 46 46 46 45 42 41 40 40 40 40 40 41 40 40 41
63 63 62 61 61 61 60 59 59 59 59 59 58 57 56 55 55 53 51 50 49 49 48 48 47 47 48 46 46 45 42 40 39 39 39 39 39 39 39 39 40 41
63 62 61 61 61 60 60 59 59 59 59 58 57 56 56 55 54 51 50 49 48 47 47 47 47 48 49 47 47 44 41 40 39 38 38 38 38 38 38 39 41 44
62 61 61 60 60 60 59 59 59 59 58 57 56 56 55 54 52 50 49 48 47 47 46 47 48 48 44 42 42 43 41 38 38 37 38 38 38 38 39 41 41 42
61 60 60 60 60 59 59 59 58 58 57 57 56 55 55 52 50 49 48 47 47 46 46 47 47 47 41 41 41 40 41 39 37 37 38 37 38 38 39 38 38 39
60 60 59 59 59 59 59 58 58 58 57 56 55 55 52 50 49 48 47 47 46 46 46 46 46 42 41 41 40 39 38 38 36 37 37 37 37 37 37 38 38 38
60 59 59 59 59 59 58 58 57 57 56 56 55 52 50 49 47 47 46 45 45 45 45 45 44 43 41 41 39 37 36 37 35 36 36 36 36 37 38 39 39 40
59 58 58 58 58 58 58 57 57 56 56 55 52 50 49 47 46 45 45 44 44 44 43 44 44 41 40 40 38 37 36 37 36 38 36 36 37 38 40 41 42 43
58 58 58 58 57 57 57 56 56 56 55 53 51 49 48 47 46 45 44 43 43 43 43 43 43 39 40 39 38 36 37 38 36 37 37 37 38 41 41 42 43 42
58 57 57 57 57 56 56 56 55 55 53 51 49 48 47 46 45 44 43 42 42 42 42 42 41 39 39 39 38 37 37 37 38 37 35 36 38 40 42 42 42 39
57 57 57 56 56 56 55 55 55 54 52 50 48 47 46 45 44 43 42 42 41 41 41 40 39 39 39 39 38 38 40 37 35 35 36 39 40 41 41 41 42 43
57 57 57 56 56 55 55 54 54 52 50 49 48 47 46 45 44 42 41 41 42 42 44 40 38 38 38 38 39 39 39 38 38 38 41 40 39 38 39 41 43 43
57 56 56 56 55 55 54 54 52 50 49 48 47 47 46 44 43 42 41 43 43 41 42 39 38 38 39 38 40 39 39 39 40 41 39 37 36 37 38 37 39 37